Tracking 28790 objects as of 19-Apr-2024
HD Live streaming from Space Station
objects crossing your sky now

MINOTAUR R/B

Track MINOTAUR R/B now!
10-day predictions


NORAD ID: 28637
Int'l Code: 2005-011B
Perigee: 850.4 km
Apogee: 869.6 km
Inclination: 98.7 °
Period: 102.0 minutes
Semi major axis: 7230 km
RCS: Unknown
Launch date: April 11, 2005
Source: United States (US)
Launch site: AIR FORCE WESTERN TEST RANGE (AFWTR)

Note: This is a ROCKET BODY
Your satellite tracking list
Your tracking list is empty




NASA's NSSDC Master Catalog

Two Line Element Set (TLE):
1 28637U 05011B   24109.91369889  .00000292  00000-0  18310-3 0  9991
2 28637  98.7412 113.5813 0013331   7.3820 352.7546 14.11906073979966
Source of the keplerian elements: McCants